Weather History for Dayton Wright, OH

Change the Weather History Date:

Friday, January 31, 2014

  Actual Average (KFFO) Record (KFFO)
Temperature  
Mean Temperature 32 °F -  
Max Temperature 37 °F 36 °F 62 °F (2002)
Min Temperature 28 °F 20 °F -5 °F (2004)
Degree Days  
Heating Degree Days 32    
Moisture  
Dew Point 22 °F    
Average Humidity 67    
Maximum Humidity 93    
Minimum Humidity 34    
Precipitation  
Precipitation 0.03 in - - ()
Sea Level Pressure  
Sea Level Pressure 30.10 in    
Wind  
Wind Speed 8 mph (SSW)    
Max Wind Speed 12 mph    
Max Gust Speed -    
Visibility 7 miles    
Events Fog , Snow    
Averages and records for this station are not official NWS values.
T = Trace of Precipitation, MM = Missing Value Source: NWS Daily Summary

Daily Weather History Graph

Daily Weather History Graph

Search for Another Location

Airport:

Trip Planner

Search our weather history database for the weather conditions in past years. The results will help you decide how hot, cold, wet, or windy it might be!

Date:

Astronomy

Jan. 31, 2014 Rise Set
Actual Time 7:45 AM EST 5:55 PM EST
Civil Twilight 7:16 AM EST 6:24 PM EST
Nautical Twilight 6:44 AM EST 6:56 PM EST
Astronomical Twilight 6:13 AM EST 7:28 PM EST
Moon 7:55 AM EST (1/31) 7:18 PM EST (1/31)
Length of Visible Light 11h 07m
Length of Day
10h 10m
New Moon, 1% of the Moon is Illuminated
Jan 31
New Moon
Feb 6
First Quarter
Feb 14
Full
Feb 22
Last Quarter
Mar 1
New

Hourly Weather History & Observations

Time (EST) Temp. Windchill Dew Point Humidity Pressure Visibility Wind Dir Wind Speed Gust Speed Precip Events Conditions
12:53 AM 33.1 °F 24.4 °F 7.0 °F 34% 30.01 in 10.0 mi SW 11.5 mph - N/A   Mostly Cloudy
1:53 AM 33.1 °F 24.4 °F 8.1 °F 35% 30.01 in 10.0 mi SSW 11.5 mph - N/A   Overcast
2:53 AM 34.0 °F 26.6 °F 8.1 °F 34% 30.02 in 10.0 mi SW 9.2 mph - N/A   Overcast
3:53 AM 34.0 °F 27.2 °F 10.0 °F 37% 30.02 in 10.0 mi SSW 8.1 mph - N/A   Overcast
4:53 AM 33.1 °F 27.7 °F 10.9 °F 40% 30.04 in 10.0 mi SSW 5.8 mph - N/A   Overcast
5:53 AM 33.1 °F 26.9 °F 10.9 °F 40% 30.06 in 10.0 mi SSW 6.9 mph - N/A   Mostly Cloudy
6:53 AM 33.1 °F 25.5 °F 12.0 °F 42% 30.07 in 10.0 mi SSW 9.2 mph - N/A   Overcast
7:53 AM 32.0 °F 26.4 °F 14.0 °F 48% 30.09 in 10.0 mi SSW 5.8 mph - N/A   Overcast
8:53 AM 33.1 °F 24.4 °F 12.9 °F 43% 30.11 in 10.0 mi SSW 11.5 mph - N/A   Overcast
9:32 AM 30.9 °F 21.7 °F 24.1 °F 76% 30.11 in 2.0 mi SW 11.5 mph - 0.00 in Snow Light Snow
9:39 AM 30.0 °F 21.7 °F 25.0 °F 82% 30.12 in 0.8 mi SSW 9.2 mph - 0.00 in Snow Light Snow
9:53 AM 28.9 °F 22.8 °F 27.0 °F 92% 30.15 in 0.5 mi SSW 5.8 mph - 0.00 in Fog , Snow Light Snow
10:01 AM 28.9 °F 21.1 °F 27.0 °F 92% 30.12 in 0.5 mi SW 8.1 mph - 0.00 in Fog , Snow Light Snow
10:19 AM 28.9 °F 21.9 °F 27.0 °F 92% 30.12 in 0.8 mi SSW 6.9 mph - 0.01 in Snow Light Snow
10:32 AM 28.9 °F 21.1 °F 27.0 °F 92% 30.12 in 1.0 mi South 8.1 mph - 0.02 in Snow Light Snow
10:39 AM 28.9 °F 21.1 °F 27.0 °F 92% 30.11 in 0.8 mi South 8.1 mph - 0.02 in Snow Light Snow
10:53 AM 28.9 °F 23.9 °F 27.0 °F 92% 30.14 in 0.8 mi SSW 4.6 mph - 0.02 in Snow Light Snow
11:13 AM 28.9 °F 21.9 °F 27.0 °F 92% 30.11 in 1.2 mi South 6.9 mph - 0.01 in Snow Light Snow
11:49 AM 30.2 °F 23.4 °F 28.4 °F 93% 30.12 in 2.0 mi South 6.9 mph - 0.01 in Snow Light Snow
11:50 AM 30.0 °F 23.2 °F 28.0 °F 92% 30.15 in 2.0 mi South 6.9 mph - 0.01 in Snow Light Snow
12:03 PM 30.0 °F 26.5 °F 28.0 °F 92% 30.12 in 2.5 mi SSW 3.5 mph - 0.00 in Snow Light Snow
12:11 PM 30.0 °F 25.2 °F 28.0 °F 92% 30.12 in 5.0 mi SW 4.6 mph - 0.00 in Snow Light Snow
12:19 PM 30.9 °F 27.5 °F 27.0 °F 85% 30.12 in 9.0 mi SSW 3.5 mph - 0.00 in   Overcast
12:53 PM 32.0 °F 27.5 °F 25.0 °F 75% 30.12 in 10.0 mi SSW 4.6 mph - 0.00 in   Overcast
1:53 PM 35.1 °F - 25.0 °F 67% 30.12 in 10.0 mi Calm Calm - N/A   Overcast
2:07 PM 35.1 °F 32.2 °F 24.1 °F 64% 30.09 in 10.0 mi SSE 3.5 mph - N/A   Overcast
2:53 PM 37.0 °F - 21.9 °F 54% 30.12 in 10.0 mi Calm Calm - N/A   Overcast
3:53 PM 37.0 °F 34.5 °F 24.1 °F 59% 30.13 in 10.0 mi NW 3.5 mph - N/A   Overcast
4:53 PM 36.0 °F 31.1 °F 26.1 °F 67% 30.13 in 10.0 mi NNE 5.8 mph - N/A   Mostly Cloudy
5:53 PM 35.1 °F 30.1 °F 26.1 °F 70% 30.12 in 10.0 mi ENE 5.8 mph - N/A   Scattered Clouds
6:53 PM 34.0 °F 26.6 °F 27.0 °F 75% 30.13 in 10.0 mi ENE 9.2 mph - N/A   Clear
7:53 PM 34.0 °F 28.8 °F 26.1 °F 73% 30.13 in 10.0 mi East 5.8 mph - N/A   Mostly Cloudy
8:53 PM 35.1 °F 30.1 °F 23.0 °F 61% 30.12 in 10.0 mi East 5.8 mph - N/A   Overcast
9:53 PM 36.0 °F 30.3 °F 19.9 °F 52% 30.11 in 10.0 mi SE 6.9 mph - N/A   Overcast
10:53 PM 36.0 °F 32.1 °F 19.9 °F 52% 30.11 in 10.0 mi SSE 4.6 mph - N/A   Overcast
11:53 PM 36.0 °F - 19.9 °F 52% 30.10 in 10.0 mi Calm Calm - N/A   Overcast